Flag for Germany Weather past 2 weeks in Tönisvorst, North Rhine-Westphalia, Germany

52 °F

Rain. Fog.

Feels Like: 47 °F
Forecast: 46 / 55 °F
Wind: 16 mph from Southwest

Location: Monchengladbach Airport

Current Time: Nov 30, 2015 at 4:39:25 PM

Latest Report: Nov 30, 2015 at 3:50 PM

Visibility: 3 mi

Pressure: 29.92 "Hg

Humidity: 94%

Dew point: 50 °F

Location of TönisvorstLocation

Historic Weather in Tönisvorst — Graph


Tönisvorst temperature yesterday

Maximum temperature yesterday: 54 °F (at 4:20 PM)
Minimum temperature yesterday: 48 °F (at 7:50 AM)
Average temperature yesterday: 51 °F

Past Weeks' High & Low Weather Summary

High61 °F (Nov 15, 3:20 PM)100% (Nov 16, 3:20 PM)30.27 "Hg (Nov 16, 3:20 PM)
Low32 °F (Nov 23, 8:50 AM)63% (Nov 18, 3:20 PM)29.39 "Hg (Nov 21, 12:20 PM)
Average46 °F87%29.87 "Hg
* Reported Nov 15 3:20 PM — Nov 30 3:20 PM, Tönisvorst, Weather by CustomWeather, © 2015

Note: Actual official high and low records may vary slightly from our data, if they occured in-between our weather recording intervals... More about our weather records


Tönisvorst weather history for previous 24 hours

Time TempWeatherWind HumidityBarometerVisibility
3:20 PM
Mon, Nov 30
52 °FLight rain. Partly cloudy.16 mph100%29.92 "HgN/A
2:50 PM50 °FLight rain. Passing clouds.17 mph100%29.95 "Hg4 mi
2:20 PM52 °FLight rain. Passing clouds.16 mph100%29.95 "Hg3 mi
1:50 PM52 °FLight rain. Passing clouds.16 mph100%29.98 "Hg4 mi
1:20 PM50 °FLight rain. Fog.9 mph100%29.98 "Hg3 mi
12:50 PM48 °FLight rain. Fog.7 mph100%30.01 "Hg3 mi
12:20 PM46 °FRain. Fog.6 mph100%30.04 "Hg3 mi
11:50 AM46 °FRain. Passing clouds.3 mph100%30.04 "Hg4 mi
11:20 AM45 °FLight rain. Passing clouds.6 mph100%30.07 "Hg5 mi
10:50 AM46 °FLight rain. Passing clouds.6 mph87%30.07 "Hg5 mi
10:20 AM46 °FPartly cloudy.7 mph82%30.09 "HgN/A
9:50 AM46 °FPassing clouds.5 mph82%30.09 "HgN/A
9:20 AM46 °FPassing clouds.5 mph76%30.09 "HgN/A
8:50 AM46 °FClear.3 mph76%30.09 "Hg10 mi
7:50 AM46 °FPartly cloudy.3 mph71%30.09 "HgN/A
7:50 PM
Sun, Nov 29
52 °FLight rain. Passing clouds.18 mph100%29.77 "HgN/A
7:20 PM52 °FPassing clouds.17 mph94%29.77 "HgN/A
6:50 PM52 °FPassing clouds.18 mph88%29.80 "HgN/A
6:20 PM54 °FPassing clouds.18 mph82%29.77 "HgN/A
5:50 PM52 °FPartly cloudy.21 mph88%29.80 "HgN/A
5:20 PM52 °FPassing clouds.17 mph94%29.77 "HgN/A
4:50 PM52 °FLight rain. Partly cloudy.17 mph94%29.77 "Hg4 mi
4:20 PM54 °FPartly cloudy.18 mph82%29.77 "HgN/A
Weather by CustomWeather, © 2015

See weather overviewHow to use our weather pages